Regional Weather Roundup
Issued by NWS Northern Indiana

Home | Current Version | Previous Version | Graphics & Text | Print | Product List | Glossary On
Versions: 1 2 3 4 5 6 7 8 9 10 11 12 13 14 15 16 17 18 19 20 21 22 23 24 25 26 27 28 29 30 31 32 33 34 35 36 37 38 39 40 41 42 43 44 45 46 47 48 49 50
000
ASUS43 KIWX 031800
RWRIWX

KIWX WEATHER ROUNDUP
NATIONAL WEATHER SERVICE NORTHERN INDIANA
200 PM EDT TUE MAY 03 2016

NOTE: "FAIR" INDICATES FEW OR NO CLOUDS BELOW 12,000 FEET WITH NO
SIGNIFICANT WEATHER AND/OR OBSTRUCTIONS TO VISIBILITY.

* THESE STATIONS ARE NOT UNDER NWS QUALITY CONTROL. THEY ALSO MAY NOT
  REPORT WEATHER SUCH AS PRECIPITATION OR FOG.

INZ001>027-031900-
NORTHERN INDIANA

CITY           SKY/WX    TMP DP  RH WIND       PRES   REMARKS
GARY*          MOSUNNY   66  45  45 SW5       29.92F
SOUTH BEND     MOSUNNY   62  38  40 W9        29.91F
6HR MIN TEMP:  44; 6HR MAX TEMP:  62;

ELKHART*       PTSUNNY   63  41  45 N3        29.91F
GOSHEN         MOSUNNY   61  42  49 NW5       29.90F
6HR MIN TEMP:  49; 6HR MAX TEMP:  62;

ANGOLA*        MOSUNNY   61  37  41 VRB3      29.88F
FORT WAYNE     PTSUNNY   60  43  53 W7        29.92F
6HR MIN TEMP:  49; 6HR MAX TEMP:  60; 6HR PCP: TRACE;

PERU/GRISSOM   CLOUDY    57  46  67 CALM      29.92F
                                      6HR PCP:  0.01;


$$
INZ028>050-031900-
CENTRAL INDIANA

CITY           SKY/WX    TMP DP  RH WIND       PRES   REMARKS
LAFAYETTE      PTSUNNY   59  39  47 NW12      29.93F
6HR MIN TEMP:  47; 6HR MAX TEMP:  61;

KOKOMO*        CLOUDY    57  46  67 N3        29.93F
6HR MIN TEMP:  48; 6HR MAX TEMP:  57; 6HR PCP:  0.05;

MUNCIE*        CLOUDY    59  48  67 VRB3      29.92F
6HR MIN TEMP:  51; 6HR MAX TEMP:  59; 6HR PCP: TRACE;

INDIANAPOLIS   CLOUDY    55  48  77 N9        29.93F
6HR MIN TEMP:  50; 6HR MAX TEMP:  55; 6HR PCP:  0.11;


$$
MIZ043>046-050>051-056>058-064>065-071>073-077>080-031900-
SOUTHWEST LOWER MICHIGAN

CITY           SKY/WX    TMP DP  RH WIND       PRES   REMARKS
BATTLE CREEK   MOSUNNY   62  36  37 VRB5      29.88F
6HR MIN TEMP:  44; 6HR MAX TEMP:  63;

BENTON HARBOR  SUNNY     60  36  40 W8        29.91F
6HR MIN TEMP:  40; 6HR MAX TEMP:  60;

COLDWATER*     CLOUDY    59  38  45 NW6       29.88F
6HR MIN TEMP:  49; 6HR MAX TEMP:  62;

HILLSDALE*     CLOUDY    58  28  30 CALM      29.88F
6HR MIN TEMP:  48; 6HR MAX TEMP:  60;

HOLLAND        SUNNY     61  35  37 SW15      29.89F
6HR MIN TEMP:  44; 6HR MAX TEMP:  62;

GRAND RAPIDS   MOSUNNY   64  36  35 W13G21    29.87F
6HR MIN TEMP:  45; 6HR MAX TEMP:  65;

KALAMAZOO      PTSUNNY   61  36  39 NW9       29.89F
6HR MIN TEMP:  44; 6HR MAX TEMP:  64;

STURGIS*       MOSUNNY   61  34  36 CALM      29.88F
THREE RIVERS*  PTSUNNY   63  34  33 CALM      29.90F
6HR MIN TEMP:  48; 6HR MAX TEMP:  64;


$$
OHZ001>008-015>018-024>025-031900-
NORTHWEST OHIO

CITY           SKY/WX    TMP DP  RH WIND       PRES   REMARKS
DEFIANCE       PTSUNNY   58  41  53 CALM      29.90F
6HR MIN TEMP:  48; 6HR MAX TEMP:  60;

FINDLAY        CLOUDY    60  41  49 NW6       29.88F
6HR MIN TEMP:  50; 6HR MAX TEMP:  60;

TOLEDO EXPRESS MOSUNNY   61  39  44 N10       29.88F
6HR MIN TEMP:  48; 6HR MAX TEMP:  61;

TOLEDO METCALF CLOUDY    59  42  53 CALM      29.89F
6HR MIN TEMP:  50; 6HR MAX TEMP:  60;

LIMA           CLOUDY    56  45  66 NW6       29.89F
6HR MIN TEMP:  47; 6HR MAX TEMP:  57;


$$
AND FOR LAKE MICHIGAN COASTAL AND OPEN LAKE BUOY OBSERVATIONS

STATION/POSITION TEMP    WIND        PRES    VSBY  WAVE
                 AIR SEA DIR/SP/G                  HT/PER
                 (F)     (DEG/KT/KT) (MB)    (MI)  (FT/S)
CALUMET HARBOR    58      80/  8/  9 1012.8F
MICHIGAN CITY     51     230/  3/  3   N/A
BURNS HARBOR      55      CALM  /  2 1014.2F
SAINT JOSEPH      49     190/  7/  9 1014.2F
SOUTH LAKE BUOY   44 42  190/ 10/ 10 1012.7          0
4 MI NW BRIDGMAN  48 49                N/A           1

$$
&&




USA.gov is the U.S. government's official web portal to all federal, state and local government web resources and services.